{"data":{"norad_id":58875,"epoch":"2026-09-20T07:49:48.533088Z","epoch_age_seconds":167544,"freshness":"FRESH","line1":"1 58875U 24019Y   26263.32625617  .00000978  00000+0  45056-4 0  9997","line2":"2 58875  43.0004 229.3667 0001186 270.0422  90.0294 15.27578947148837","mean_motion":15.27578947,"eccentricity":0.0001186,"inclination_deg":43.0004,"raan_deg":229.3667,"arg_perigee_deg":270.0422,"mean_anomaly_deg":90.0294,"bstar":4.5056e-5,"rev_number":14883,"period_min":94.26681369418,"perigee_km":482.23851205734,"apogee_km":483.86598614722,"semimajor_km":6861.1892491023,"source":"CELESTRAK","updated_at":"2026-09-21T09:00:33.991546Z"}}